Погода в Уфе

Погода в Уфе : погода сейчас, прогноз погоды и архив. Всё, что Вы хотите узнать о погоде в Уфе!

Хотите узнать прогноз погоды в Уфе? Тогда Вам сюда: Погода в Уфе

Поиск расширенной информации на нашем сайте:

Другие новости

Новости СМИ2

Главная страница сайта

Новости сайта

03.07.2017

Напоминаем, что на нашем специализированном сайте Метеоцентр.Азия вы можете получить высокодетализированные автоматические прогнозы погоды по пунктам России, СНГ и мира в авиационном формате (включающие направление и скорость ветра, видимость, явления погоды, количество и форму облачности, нижнюю и верхнюю границу облачности).


Погода в Уфе - сегодня

Время (UTC), дата Ветер
(°,м/с) 
Видим.   Явления Облачность Т
(°С)
Тd
(°С)
f(%) Тe
(°С)
Pmin
(гПа)
dP
(гПа)
Po
(мм)
O2
(г/м3)
Тmin Tmax R s Состояние
почвы
00 19.11.17 150 (ЮВ) 10 км  {снег}  10/4 1000 м средняя 
[Sc|Ac trans]
+0.8 -2.3 80 +1  1026.1  1.1  760  305           
03 19.11.17 160 (Ю) 10 км    9/9 1000 м 
[Sc]
+0.3 -2.4 82 1026.7  0.5  760  306  +0.3    0.2  равномерный
сухой снег
100% 
06 19.11.17 170 (Ю) 10 км    10/10 1000 м 
[Sc]
+0.9 -2.2 80 -1  1027.9  1.2  761  306           
09 19.11.17 180 (Ю) 10 км    10/10 1000 м 
[Sc]
+1.8 -1.8 77 1028.3  0.5  761  305           
12 19.11.17 180 (Ю) 10 км    10/10 1000 м 
[Sc]
+1.6 -3.1 71 1028.5  0.2  761  305           
15 19.11.17 170 (Ю) 10 км    9/9 1000 м 
[Sc]
+0.9 -3.4 73 +2  1028.2  -0.4  761  306    +1.9       
18 19.11.17 180 (Ю) 10 км    4/0 средняя, верхняя 
[Ac trans|Ci fib]
+0 -3.4 78 -1  1027.3  -0.9  761  307           
21 19.11.17 160 (Ю) 10 км    9/9 1000 м 
[Sc]
-0.6 -3.7 80 -1  1026.6  -0.7  760  307           
00 20.11.17 170 (Ю) 10 км    10/10 1000 м 
[Sc]
+0.5 -2.6 80 -1  1025.6  -1  759  306           
03 20.11.17 180 (Ю) 10 км    10/10 1000 м 
[Sc]
+1 -2.1 80 -1  1024.9  -0.6  759  305  -1.1      равномерный
мокрый или
старый снег
100% 
06 20.11.17 180 (Ю) 10 км    9/3 1000 м средняя, верхняя 
[Sc|Ac trans|Ci fib]
+0.8 -2.3 80 -1  1025  0.1  759  305           
09 20.11.17 180 (Ю) 10 км    9/9 1000 м 
[Sc]
+2.1 -2.1 74 +1  1024.9  759  304           
12 20.11.17 180 (Ю) 10 км    10/10 1000 м 
[Sc]
+2 -1.6 77 +1  1024.8  -0.2  759  304           
15 20.11.17 180 (Ю) 10 км  {ливн. осадки}  9/3 1000 м средняя 
[Sc|Ac trans]
+1.9 -1.6 78 +1  1024.7  -0.1  759  304    +2.3  0.0     
18 20.11.17 180 (Ю) 10 км  {ливн. осадки}  9/0 средняя, верхняя 
[Ac trans|Ci fib]
+1.9 -2.1 75 +1  1024.4  -0.3  758  304           
21 20.11.17 140 (ЮВ) 10 км    9/0 средняя 
[Ac trans]
+0.6 -3 77 +1  1024  -0.4  758  305           
00 21.11.17 180 (Ю) 10 км    3/0 средняя, верхняя 
[Ac trans|Ci fib]
-0.1 -4.2 74 +1  1023.1  -1  757  306           
03 21.11.17 210 (ЮЗ) 10 км    4/0 средняя, верхняя 
[Ac trans|Ci fib]
-2.3 -6.2 75 -2  1021.8  -1.3  756  308  -3.4      сухой снег
50-90% 
06 21.11.17 160 (Ю) 10 км    9/3 1000 м средняя, верхняя 
[Sc|Ac trans|Cs]
+0.4 -7 58 1020.8  -1  756  305  -4.6         
09 21.11.17 180 (Ю) 10 км    9/4 1000 м средняя, верхняя 
[Sc|Ac trans|Ci fib]
+3.5 -7.2 45 +4  1018.3  -2.4  754  301           
12 21.11.17 180 (Ю) 10 км    9/3 1000 м средняя, верхняя 
[Sc|Ac trans|Ci fib]
+3.6 -6.1 49 +4  1016.6  -1.6  753  300           
15 21.11.17 160 (Ю) 10 км    10/8 1000 м средняя 
[Sc|Ac trans]
+2.6 -6.6 51 +3  1016.1  -0.4  752  301    +4.8       
18 21.11.17 200 (Ю) 10 км    9/6 1000 м средняя, верхняя 
[Sc|Ac trans|Ci fib]
+1.2 -5.5 61 +2  1015.8  -0.4  752  302           
21 21.11.17 180 (Ю) 10 км    9/0 средняя, верхняя 
[Ac trans|Ci fib]
-1.1 -5 75 -1  1015.1  -0.4  751  305           
00 22.11.17 230 (ЮЗ) 10 км    3/0 верхняя 
[Ci fib]
-4.8 -6.7 87 -4  1014.6  -0.7  751  309           
Время (UTC), дата Ветер
(°,м/с) 
Видим.   Явления Облачность Т
(°С)
Тd
(°С)
f(%) Тe
(°С)
Pmin
(гПа)
dP
(гПа)
Po
(мм)
O2
(г/м3)
Тmin Tmax R s Состояние
почвы

Для получения пояснительной информации подведите курсор к названию столбца.

ПОГОДА в Уфе - архив

Всё, что Вы хотите узнать о погоде в Уфе - удобно и подробно!

Выберите нужную дату (начиная с 1 января 2015* года) и нажмите кнопку "Найти".
Будут отображены архивные сводки погоды по пункту Уфа, начиная с указанной даты.


Отображать данные в формате CSV (для использования в таблицах Excel)


Внимание! Наш архив погоды предназначен исключительно для личного некоммерческого использования в познавательных целях. Если Вам необходимы официальные справки о состоянии погоды (для производственных, юридических, коммерческих и т.п. целей), обращайтесь в органы Росгидромета.

*Примечание: данная дата относится к архиву по метеостанциям СССР (Россия, СНГ, Балтия).
Архив по метеостанциям Зарубежной Европы и Азии (кроме Китая) хранится 10 дней, по другим регионам земного шара (Китай, Африка, Америка, Австралия, Океания) - 1 день.

Уфа - район местоположения метеостанции


Название, широта, долгота, высота метеостанции:
Уфа (город) 54.7°ш. 55.8°д. 104 м над ур. моря [Российская Федерация]

Дополнительная информация

В oтличие oт бoльшинства пoгoдных сайтoв мы публикуем пoдрoбную метеoинфoрмацию в детальнoм прoфессиoнальнoм фoрмате.

Характеристики температуры и влажнoсти вoздуха измеряются на высoте 2 м в тени вдали oт зданий и деревьев.
Скoрoсть ветра измеряется на высoте 10 м (на урoвне рoста челoвека скoрoсть ветра ниже в 1.5-2 раза). Если метеoстанция нахoдится в гoрoде или в лесу, тo скoрoсть ветра занижена на 2-4 м/с пo сравнению с oткрытым местoм. Скoрoсть ветра над акватoриями крупных рек и oзёр, а также на вершинах хoлмoв на 2-5 м/с выше, чем в oбычных услoвиях.
Атмoсфернoе давление в разных тoчках местнoсти мoжет значительнo oтличаться oт давления на метеoстанции, в зависимoсти oт услoвий рельефа (при пoдъёме на 10 м давление пoнижается примернo на 1 мм рт.ст.).